Location: Peterborough
(44.3091°N, 78.3197°W)
Time: 17:28:28
(UTC-04:00)

Transit 2A Rocket - Pass Details

Date: 30 March 2023
Orbit: 584 x 914 km, 66.7° (Epoch: 04 June)

Event Time Altitude Azimuth Distance (km) Brightness Sun altitude
Rises 19:25:43 0° 330° (NNW) 3,557 9.0 1.3°
Reaches altitude 10° 19:28:20 10° 334° (NNW) 2,610 8.2 0.9°
Maximum altitude 19:34:21 56° 53° (NE) 1,056 5.6 -0.2°
Drops below altitude 10° 19:40:05 10° 131° (SE) 2,491 7.2 -1.2°
Sets 19:42:31 0° 136° (SE) 3,383 7.9 -1.7°
